EW3230 Weather Reports


time (UTC)temp
C
wind
direction
speed
KPH
gust
KPH
rain 1hr
cm
rain 24hr
cm
rain mn
cm
humidity
%
barometer
mb
20260906191932 18 84 3.2 8.0 0.00 0.05 0.05 72 1014.7
20260906190433 19 77 3.2 12.9 0.00 0.05 0.05 71 1014.6
20260906185933 19 73 4.8 12.9 0.00 0.05 0.05 70 1014.6
20260906185547 19 80 3.2 11.3 0.00 0.05 0.05 70 1014.7
20260906183431 20 66 3.2 12.9 0.00 0.05 0.05 69 1014.7
20260906182425 20 62 3.2 11.3 0.00 0.05 0.05 69 1014.8
20260906181923 19 72 3.2 12.9 0.00 0.05 0.05 70 1014.9
20260906180423 20 149 3.2 9.7 0.00 0.05 0.05 69 1014.8
20260906175422 19 165 4.8 14.5 0.00 0.05 0.05 69 1014.8
20260906174422 19 101 3.2 17.7 0.00 0.05 0.05 69 1015.0
20260906173924 19 279 3.2 14.5 0.00 0.05 0.05 70 1014.9
20260906172424 20 56 4.8 14.5 0.00 0.05 0.05 69 1015.0
20260906171421 19 75 4.8 17.7 0.00 0.05 0.05 70 1015.0
20260906170420 19 82 6.4 17.7 0.00 0.05 0.05 70 1015.0
20260906165418 19 255 4.8 14.5 0.00 0.05 0.05 69 1015.1
20260906164414 19 354 6.4 19.3 0.00 0.05 0.05 70 1015.0
20260906163415 19 61 4.8 16.1 0.00 0.05 0.05 69 1015.1
20260906162914 19 56 4.8 14.5 0.00 0.05 0.05 68 1015.2
20260906161414 19 65 1.6 12.9 0.00 0.05 0.05 68 1015.2
20260906160415 19 322 6.4 19.3 0.00 0.05 0.05 68 1015.2
20260906155429 19 137 4.8 17.7 0.00 0.05 0.05 68 1015.3
20260906154416 18 124 4.8 20.9 0.00 0.05 0.05 67 1015.4
20260906153415 18 67 4.8 16.1 0.00 0.05 0.05 69 1015.3
20260906152412 18 46 6.4 22.5 0.00 0.05 0.05 72 1015.4
20260906151411 18 103 3.2 12.9 0.00 0.05 0.05 72 1015.2
20260906150423 18 290 3.2 22.5 0.00 0.05 0.05 73 1015.2
20260906145912 18 266 3.2 16.1 0.00 0.05 0.05 72 1015.3
20260906144414 18 148 4.8 20.9 0.00 0.05 0.05 71 1015.4
20260906144409 18 278 3.2 16.1 0.00 0.05 0.05 70 1015.3
20260906142910 18 103 3.2 16.1 0.00 0.05 0.05 73 1015.2
20260906141912 18 118 1.6 11.3 0.00 0.05 0.05 73 1015.3
20260906140410 18 94 4.8 20.9 0.00 0.05 0.05 73 1015.3
20260906135406 18 112 1.6 17.7 0.00 0.05 0.05 76 1015.2
20260906133909 17 253 0.0 4.8 0.00 0.05 0.05 72 1015.2
20260906132402 17 264 0.0 6.4 0.00 0.05 0.05 71 1015.2
20260906131403 17 101 0.0 3.2 0.00 0.05 0.05 70 1015.2
20260906130402 17 238 0.0 3.2 0.00 0.05 0.05 71 1015.1
20260906125415 17 306 0.0 1.6 0.00 0.05 0.05 71 1015.0
20260906124403 16 316 0.0 3.2 0.00 0.05 0.05 70 1015.0
20260906123402 16 322 0.0 4.8 0.00 0.05 0.05 68 1015.0
20260906122857 16 246 0.0 1.6 0.03 0.05 0.05 67 1014.9
20260906121357 16 231 0.0 1.6 0.05 0.05 0.05 66 1014.9
20260906120859 15 205 0.0 1.6 0.05 0.05 0.05 66 1014.8
20260906115356 15 205 0.0 0.0 0.05 0.05 0.05 66 1014.7
20260906114357 15 46 0.0 0.0 0.05 0.05 0.05 67 1014.5
20260906113358 15 93 0.0 0.0 0.05 0.05 0.05 68 1014.5
20260906112356 15 79 0.0 0.0 0.03 0.03 0.03 70 1014.6
20260906111356 15 65 0.0 0.0 0.00 0.00 0.00 71 1014.4
20260906110355 15 68 0.0 1.6 0.00 0.00 0.00 71 1014.2
20260906105351 15 68 0.0 0.0 0.00 0.00 0.00 72 1014.2
20260906104351 15 65 0.0 0.0 0.00 0.00 0.00 73 1014.1
20260906103350 16 75 0.0 0.0 0.00 0.00 0.00 74 1013.8
20260906102852 16 75 0.0 1.6 0.00 0.00 0.00 75 1013.6
20260906101350 16 78 0.0 4.8 0.00 0.00 0.00 75 1013.7
20260906100403 16 88 1.6 8.0 0.00 0.00 0.00 74 1013.6
20260906095350 16 86 0.0 3.2 0.00 0.00 0.00 71 1013.5
20260906094351 15 114 0.0 3.2 0.00 0.00 0.00 68 1013.6
20260906093351 15 42 0.0 3.2 0.00 0.00 0.00 66 1013.4
20260906092344 15 80 0.0 1.6 0.00 0.00 0.00 65 1013.2
20260906091344 15 58 0.0 0.0 0.00 0.00 0.00 65 1013.2
20260906090845 15 59 0.0 0.0 0.00 0.00 0.00 65 1013.0
20260906085346 15 58 0.0 0.0 0.00 0.00 0.00 64 1012.9
20260906084344 15 58 0.0 0.0 0.00 0.00 0.00 64 1012.9
20260906083845 15 75 0.0 0.0 0.00 0.00 0.00 64 1012.8
20260906082344 15 62 0.0 1.6 0.00 0.00 0.00 64 1012.7
20260906081346 15 200 0.0 0.0 0.00 0.00 0.00 64 1012.7
20260906080345 15 200 0.0 0.0 0.00 0.00 0.00 64 1012.7
20260906075339 15 200 0.0 0.0 0.00 0.00 0.00 64 1012.7
20260906074340 15 200 0.0 0.0 0.00 0.00 0.00 64 1012.6
20260906073339 15 200 0.0 0.0 0.00 0.00 0.00 64 1012.6
20260906072339 15 200 0.0 0.0 0.00 0.00 0.00 64 1012.6
20260906071338 15 200 0.0 0.0 0.00 0.00 0.00 64 1012.5
20260906070340 15 200 0.0 0.0 0.00 0.00 0.00 64 1012.5
20260906065339 15 200 0.0 0.0 0.00 0.00 0.00 64 1012.6
20260906064841 16 200 0.0 0.0 0.00 0.00 0.00 64 1012.6
20260906063338 16 200 0.0 0.0 0.00 0.00 0.00 65 1012.6
20260906062835 16 200 0.0 0.0 0.00 0.00 0.00 65 1012.6
20260906061333 16 200 0.0 0.0 0.00 0.00 0.00 65 1012.6
20260906060332 16 200 0.0 0.0 0.00 0.00 0.00 66 1012.6
20260906055333 16 232 0.0 1.6 0.00 0.00 0.00 66 1012.8
20260906054334 16 313 0.0 0.0 0.00 0.00 0.00 67 1012.9
20260906053337 16 314 0.0 0.0 0.00 0.00 0.00 67 1012.9
20260906052333 16 314 0.0 0.0 0.00 0.00 0.00 68 1013.0
20260906051334 16 314 0.0 0.0 0.00 0.00 0.00 68 1012.9
20260906050833 16 82 0.0 0.0 0.00 0.00 0.00 67 1013.0
20260906045327 16 80 0.0 0.0 0.00 0.00 0.00 66 1012.9
20260906044326 16 81 0.0 0.0 0.00 0.00 0.00 66 1012.8
20260906043327 16 80 0.0 0.0 0.00 0.00 0.00 66 1012.7
20260906042829 16 80 0.0 0.0 0.00 0.00 0.00 67 1012.7
20260906041828 16 80 0.0 0.0 0.00 0.00 0.00 67 1012.7
20260906040328 16 80 0.0 0.0 0.00 0.00 0.00 68 1012.6
20260906035827 16 80 0.0 0.0 0.00 0.00 0.00 68 1012.6
20260906034324 16 80 0.0 0.0 0.00 0.00 0.00 69 1012.6
20260906033323 16 81 0.0 0.0 0.00 0.00 0.00 70 1012.5
20260906032318 16 90 0.0 0.0 0.00 0.00 0.00 70 1012.5
20260906031318 16 90 0.0 0.0 0.00 0.00 0.00 70 1012.5
20260906030331 16 98 0.0 0.0 0.00 0.00 0.00 70 1012.5
20260906025321 16 99 0.0 0.0 0.00 0.00 0.00 70 1012.6
20260906024319 17 99 0.0 0.0 0.00 0.00 0.00 70 1012.6
20260906023318 17 99 0.0 0.0 0.00 0.00 0.00 71 1012.6
20260906022319 17 98 0.0 0.0 0.00 0.00 0.00 71 1012.6
20260906021318 17 98 0.0 0.0 0.00 0.00 0.00 72 1012.5
20260906020319 17 98 0.0 0.0 0.00 0.00 0.00 72 1012.5
20260906015316 17 49 0.0 0.0 0.00 0.00 0.00 72 1012.6
20260906014312 17 46 0.0 0.0 0.00 0.00 0.00 72 1012.7
20260906013314 17 46 0.0 0.0 0.00 0.00 0.00 72 1012.5
20260906012312 17 41 0.0 0.0 0.00 0.00 0.00 71 1012.3
20260906011313 17 41 0.0 0.0 0.00 0.00 0.00 71 1012.4
20260906010313 17 83 0.0 0.0 0.00 0.00 0.00 71 1012.3
20260906005312 16 84 0.0 0.0 0.00 0.00 0.00 72 1012.4
20260906004311 16 84 0.0 0.0 0.00 0.00 0.00 71 1012.3
20260906003810 16 83 0.0 0.0 0.00 0.00 0.00 70 1012.1
20260906002306 16 84 0.0 0.0 0.00 0.00 0.00 70 1012.3
20260906001304 16 84 0.0 0.0 0.00 0.00 0.00 71 1012.1
20260906000305 16 84 0.0 0.0 0.00 0.00 0.00 71 1012.1
20260905235306 16 83 0.0 0.0 0.00 0.00 0.00 72 1012.0
20260905234304 16 84 0.0 0.0 0.00 0.00 0.00 73 1011.9
20260905233810 16 83 0.0 0.0 0.00 0.00 0.00 73 1011.9
20260905232306 17 84 0.0 0.0 0.00 0.00 0.00 74 1011.9
20260905231307 17 84 0.0 0.0 0.00 0.00 0.00 75 1011.8
20260905230305 17 84 0.0 0.0 0.00 0.00 0.00 75 1011.9
20260905225259 17 82 0.0 1.6 0.00 0.00 0.00 76 1011.9
20260905224259 18 81 0.0 3.2 0.00 0.00 0.00 76 1011.9
20260905223800 18 97 0.0 3.2 0.00 0.00 0.00 76 1012.0
20260905223413 18 61 0.0 4.8 0.00 0.00 0.00 76 1012.0
20260905221300 18 97 0.0 3.2 0.00 0.00 0.00 76 1011.9
20260905220300 18 80 1.6 6.4 0.00 0.00 0.00 76 1011.7
20260905215259 18 176 1.6 6.4 0.00 0.00 0.00 76 1011.4
20260905214258 18 142 1.6 9.7 0.00 0.00 0.00 76 1011.3
20260905213259 18 95 3.2 12.9 0.00 0.00 0.00 76 1011.3
20260905212255 19 351 3.2 12.9 0.00 0.00 0.00 75 1011.0
20260905211254 19 46 6.4 17.7 0.00 0.00 0.00 75 1011.1
20260905210254 19 68 6.4 24.1 0.00 0.00 0.00 75 1011.0
20260905205252 19 80 4.8 22.5 0.00 0.00 0.00 75 1010.8
20260905204253 20 285 4.8 19.3 0.00 0.00 0.00 75 1010.8
20260905203253 20 117 4.8 17.7 0.00 0.00 0.00 75 1010.5
20260905202753 20 73 4.8 14.5 0.00 0.00 0.00 74 1010.5
20260905202408 20 81 3.2 12.9 0.00 0.00 0.00 74 1010.4
20260905200251 20 226 3.2 17.7 0.00 0.00 0.00 75 1010.4
20260905195250 20 4 1.6 11.3 0.00 0.00 0.00 75 1010.4
20260905194249 20 93 4.8 22.5 0.00 0.00 0.00 75 1010.3
20260905193251 20 74 3.2 11.3 0.00 0.00 0.00 75 1010.4
20260905192249 20 68 4.8 17.7 0.00 0.00 0.00 75 1010.5